EDUZ Weather Reports


time (UTC)temp
F
wind
direction
speed
knots
gust
knots
rain 1hr
in
rain 24hr
in
rain mn
in
humidity
%
barometer
mb
20260902072803 59 158 1.7 2.6 0.00 0.22 0.01 87 1020.0
20260902070804 59 166 0.9 2.6 0.00 0.22 0.01 90 1020.0
20260902063603 57 155 2.6 4.3 0.00 0.22 0.01 94 1020.0
20260902062603 56 191 1.7 2.6 0.00 0.22 0.01 95 1020.0
20260902061603 56 176 2.6 4.3 0.00 0.22 0.01 95 1020.0
20260902060103 55 164 1.7 1.7 0.00 0.22 0.01 96 1020.0
20260902053903 54 226 0.0 0.0 0.00 0.22 0.01 95 1020.3
20260902053403 54 226 0.0 0.0 0.00 0.22 0.01 95 1020.3
20260902043703 54 226 0.0 0.0 0.00 0.22 0.01 95 1020.3
20260902042704 53 226 0.9 1.7 0.00 0.22 0.01 95 1020.0
20260902041203 53 227 0.9 1.7 0.00 0.22 0.01 95 1020.3
20260902040104 53 226 2.6 2.6 0.00 0.22 0.01 95 1020.7
20260902035103 53 241 2.6 2.6 0.00 0.22 0.01 95 1020.3
20260902034004 53 254 1.7 1.7 0.00 0.22 0.01 95 1020.0
20260902033404 53 256 2.6 4.3 0.00 0.22 0.01 95 1020.0
20260902032903 52 255 2.6 2.6 0.00 0.22 0.01 95 1020.0
20260902031903 52 215 0.9 0.9 0.00 0.22 0.01 95 1020.0
20260902030404 53 214 1.7 1.7 0.00 0.22 0.01 95 1019.6
20260902025903 53 214 0.9 1.7 0.00 0.22 0.01 94 1019.6
20260902022703 54 221 1.7 1.7 0.01 0.22 0.01 94 1019.6
20260902022104 54 223 1.7 1.7 0.01 0.22 0.01 94 1019.6
20260902021604 54 225 0.9 1.7 0.01 0.22 0.01 94 1019.6
20260902021103 54 225 0.9 1.7 0.01 0.22 0.01 94 1019.6
20260902015004 55 225 0.0 0.9 0.01 0.22 0.01 93 1019.6
20260902013903 55 227 0.9 1.7 0.01 0.22 0.01 92 1020.0
20260902010604 57 251 2.6 4.3 0.00 0.21 0.00 90 1019.6
20260902001004 57 236 2.6 4.3 0.00 0.21 0.00 90 1019.6
20260901233704 57 244 1.7 1.7 0.00 0.21 0.00 89 1019.6
20260901233203 57 239 1.7 2.6 0.00 0.21 0.00 89 1019.3
20260901232703 57 237 2.6 2.6 0.00 0.21 0.00 89 1019.3
20260901232103 57 241 2.6 2.6 0.00 0.21 0.00 88 1019.6
20260901225903 59 259 2.6 4.3 0.00 0.21 0.00 86 1019.6
20260901224203 60 265 4.3 5.2 0.00 0.21 0.00 86 1019.3
20260901222703 59 253 2.6 4.3 0.00 0.21 0.00 86 1019.6
20260901221103 60 259 4.3 5.2 0.00 0.21 0.00 86 1019.6
20260901214504 59 264 1.7 1.7 0.00 0.21 0.21 89 1019.3
20260901214005 60 234 3.5 4.3 0.00 0.21 0.21 90 1019.3
20260901210703 61 236 2.6 4.3 0.00 0.21 0.21 86 1019.3
20260901205703 61 226 2.6 4.3 0.00 0.21 0.21 86 1019.3
20260901205203 61 233 2.6 2.6 0.00 0.21 0.21 84 1019.3
20260901204006 62 260 5.2 6.1 0.00 0.21 0.21 80 1019.0
20260901203506 62 273 4.3 5.2 0.00 0.21 0.21 80 1019.3
20260901201903 62 268 4.3 6.1 0.00 0.21 0.21 80 1019.0
20260901201403 62 258 3.5 6.1 0.00 0.21 0.21 81 1019.0
20260901200805 62 263 3.5 5.2 0.00 0.21 0.21 82 1019.0
20260901200303 62 255 4.3 5.2 0.00 0.21 0.21 83 1019.0
20260901195804 62 252 3.5 5.2 0.00 0.21 0.21 82 1019.0
20260901195306 62 257 3.5 5.2 0.00 0.21 0.21 81 1019.0
20260901194805 63 251 3.5 7.0 0.00 0.21 0.21 81 1019.0
20260901194304 63 260 3.5 5.2 0.00 0.21 0.21 80 1019.0
20260901193804 63 263 4.3 5.2 0.00 0.21 0.21 82 1019.0
20260901193305 63 259 2.6 4.3 0.00 0.21 0.21 82 1019.0
20260901192803 63 254 4.3 5.2 0.00 0.21 0.21 81 1019.0
20260901192306 63 252 5.2 5.2 0.00 0.21 0.21 81 1019.0
20260901191805 63 259 3.5 4.3 0.00 0.21 0.21 81 1019.0
20260901191304 63 266 2.6 6.1 0.00 0.21 0.21 80 1019.0
20260901185706 62 259 3.5 6.1 0.00 0.21 0.21 85 1018.6
20260901185203 62 255 3.5 5.2 0.00 0.21 0.21 88 1018.6
20260901184703 62 252 2.6 4.3 0.00 0.21 0.21 88 1018.6
20260901183703 62 234 3.5 4.3 0.00 0.21 0.21 88 1018.6
20260901180403 62 232 2.6 2.6 0.06 0.21 0.21 88 1018.3
20260901175305 62 237 2.6 2.6 0.16 0.26 0.21 86 1017.9
20260901174204 62 253 5.2 7.8 0.21 0.26 0.21 84 1018.3
20260901171504 61 231 4.3 6.1 0.21 0.26 0.21 86 1018.3
20260901164403 71 290 12.2 13.9 0.00 0.05 0.00 55 1017.3
20260901163403 72 295 7.8 9.6 0.00 0.05 0.00 53 1016.9
20260901162403 72 274 7.0 8.7 0.00 0.05 0.00 52 1017.3
20260901161303 73 280 7.8 7.8 0.00 0.05 0.00 51 1016.9
20260901160803 73 273 7.0 14.8 0.00 0.05 0.00 50 1016.9
20260901160304 74 277 6.1 8.7 0.00 0.05 0.00 49 1016.9
20260901155705 73 264 7.8 7.8 0.00 0.05 0.00 49 1016.9
20260901154703 73 274 11.3 13.0 0.00 0.05 0.00 48 1016.9
20260901153105 74 266 6.1 9.6 0.00 0.05 0.00 48 1016.9
20260901150903 74 280 7.0 8.7 0.00 0.05 0.00 49 1016.6
20260901150404 73 294 6.1 12.2 0.00 0.05 0.00 50 1016.9
20260901145306 74 280 8.7 9.6 0.00 0.15 0.00 47 1016.9
20260901144804 73 281 6.1 11.3 0.00 0.15 0.00 49 1016.9
20260901143803 74 258 8.7 11.3 0.00 0.15 0.00 48 1016.9
20260901142104 74 252 8.7 13.9 0.00 0.15 0.00 48 1016.6
20260901135503 74 259 6.1 11.3 0.00 0.15 0.00 49 1016.9
20260901133403 75 260 7.8 14.8 0.00 0.15 0.00 47 1016.6
20260901131803 73 293 6.1 9.6 0.00 0.15 0.00 50 1017.3
20260901125803 72 275 8.7 12.2 0.00 0.15 0.00 54 1017.3
20260901125204 73 299 9.6 13.0 0.00 0.15 0.00 53 1017.3
20260901124605 72 259 10.4 12.2 0.00 0.15 0.00 53 1017.3
20260901122904 73 286 13.9 14.8 0.00 0.15 0.00 53 1017.3
20260901120803 70 263 5.2 9.6 0.00 0.15 0.00 59 1017.3
20260901120205 72 264 10.4 13.0 0.00 0.15 0.00 56 1017.6
20260901115604 70 283 11.3 14.8 0.00 0.15 0.00 59 1017.6
20260901110603 69 278 6.1 14.8 0.00 0.15 0.00 63 1017.3
20260901110004 69 273 7.8 13.0 0.00 0.15 0.00 63 1017.6
20260901103803 69 259 7.8 9.6 0.00 0.15 0.00 64 1017.6
20260901103204 69 264 7.0 11.3 0.00 0.15 0.00 67 1017.3
20260901102203 69 280 13.9 17.4 0.00 0.15 0.00 65 1017.3
20260901100604 68 249 6.1 8.7 0.00 0.15 0.00 68 1017.6
20260901095104 68 269 6.1 9.6 0.00 0.15 0.00 70 1017.6
20260901094103 68 289 9.6 11.3 0.00 0.15 0.00 69 1017.6
20260901093103 66 297 7.8 9.6 0.00 0.15 0.00 73 1017.6
20260901085403 67 258 12.2 15.6 0.00 0.15 0.00 73 1017.3
20260901083803 66 276 6.1 8.7 0.00 0.15 0.00 72 1017.3
20260901082604 65 273 7.8 12.2 0.00 0.15 0.00 72 1016.9
20260901080504 64 261 8.7 11.3 0.00 0.15 0.00 75 1017.3
20260901073805 64 234 9.6 11.3 0.00 0.15 0.00 76 1017.3